{"data":{"norad_id":49201,"intl_designator":"2021-083R","name":"ONEWEB-0335","alt_names":[],"object_type":"PAYLOAD","status":"ACTIVE","operator":null,"country":"UK","launch_date":"2021-09-14","launch_site_code":"TYMSC","launch_vehicle":null,"mission":null,"orbit_class":"UNKNOWN","rcs_meters":null,"size_class":null,"mass_kg":null,"dimensions":null,"purposes":["comms"],"wikipedia_slug":null,"has_3d_model":false,"image_url":null,"decayed_at":null,"tle_current":{"epoch":"2026-09-19T19:46:19.814016Z","epoch_age_seconds":80302,"freshness":"FRESH","line1":"1 49201U 21083R   26262.82384044 -.00000247  00000+0 -71175-3 0  9999","line2":"2 49201  87.8913 301.4003 0001996  99.1502 260.9853 13.13469050243347","mean_motion":13.1346905,"eccentricity":0.0001996,"inclination_deg":87.8913,"raan_deg":301.4003,"arg_perigee_deg":99.1502,"mean_anomaly_deg":260.9853,"bstar":-0.00071175,"rev_number":24334,"period_min":109.63334080845,"perigee_km":1208.2545126132,"apogee_km":1211.2836047118,"semimajor_km":7587.9060586625,"source":"CELESTRAK","updated_at":"2026-09-20T09:00:44.663487Z"}}}